{"data":{"norad_id":53020,"epoch":"2026-05-25T03:09:08.487936Z","epoch_age_seconds":57702,"freshness":"FRESH","line1":"1 53020U 22076AL  26145.13134824  .00000212  00000+0  31396-4 0  9991","line2":"2 53020  53.2148 100.9581 0001333  75.3057 284.8082 15.08840217214528","mean_motion":15.08840217,"eccentricity":0.0001333,"inclination_deg":53.2148,"raan_deg":100.9581,"arg_perigee_deg":75.3057,"mean_anomaly_deg":284.8082,"bstar":3.1396e-5,"rev_number":21452,"period_min":95.437540952025,"perigee_km":538.82057231456,"apogee_km":540.66487904943,"semimajor_km":6917.879725682,"source":"CELESTRAK","updated_at":"2026-05-25T13:38:17.281004Z"}}